Location: Altmatt
(47.1333°N, 8.7000°E)
Time: 02:43:22
(UTC+00:00)

Terra - Pass Details

Date: 13 July 2020
Orbit: 701 x 703 km, 98.2° (Epoch: 04 August)

Event Time Altitude Azimuth Distance (km) Brightness Sun altitude
Exits shadow 21:21:22 23° 169° (S) 1,473 2.9 -15.3°
Maximum altitude 21:24:21 83° 256° (WSW) 715 1.8 -15.5°
Drops below altitude 10° 21:29:09 10° 345° (NNW) 2,181 5.6 -15.9°
Sets 21:31:25 0° 346° (NNW) 3,104 6.7 -16.1°
